Regional Weather Roundup
Issued by NWS

Home | Current Version | Previous Version | Graphics & Text | Print | Product List | Glossary On
Versions: 1 2 3 4 5 6 7 8 9 10 11 12 13 14 15 16 17 18 19 20 21 22 23 24 25 26 27 28 29 30 31 32 33 34 35 36 37 38 39 40 41 42 43 44 45 46 47 48 49 50
000
ASUS44 KMEG 242100
RWRTN
TENNESSEE HOURLY STATE WEATHER ROUNDUP
NATIONAL WEATHER SERVICE MEMPHIS TN
400 PM CDT FRI APR 24 2015

TNZ002-004-019-021-049-052-054-088>092-242200-
WEST TENNESSEE

CITY           SKY/WX    TMP DP  RH WIND       PRES   REMARKS
MEMPHIS INTL   LGT RAIN  59  52  77 SE7       29.96F
NWS MEMPHIS      N/A     58 N/A N/A MISG        N/A
JACKSON        LGT RAIN  59  53  80 SE5       29.97F
DYERSBURG      CLOUDY    55  39  54 E3        29.96F
UNION CITY     PTSUNNY   55  32  41 VRB3      29.95F
PARIS          CLOUDY    55  46  71 E3        29.97F
LEXINGTON      CLOUDY    59  52  77 NW5       29.96F
SAVANNAH       CLOUDY    64  32  29 NW8       29.99R
$$

TNZ008-025-027-028-033-062-065-066-242200-
NORTH MIDDLE TENNESSEE

CITY           SKY/WX    TMP DP  RH WIND       PRES   REMARKS
NASHVILLE      CLOUDY    67  30  25 SE8       29.98F
CLARKSVILLE    CLOUDY    64  33  31 S5        29.98F
COOKEVILLE     SUNNY     68  30  24 CALM      29.98F
CROSSVILLE     CLOUDY    65  21  18 W3        30.01F
$$

TNZ061-075-076-078-094-096-097-242200-
SOUTH MIDDLE TENNESSEE

CITY           SKY/WX    TMP DP  RH WIND       PRES   REMARKS
FAYETTEVILLE     N/A     70  36  28 S3        29.98S
TULLAHOMA      SUNNY     68  25  19 CALM      29.99F
WINCHESTER     SUNNY     72  37  28 VRB3      29.98F
MCMINNVILLE    SUNNY     66  32  28 CALM      29.99F
COLUMBIA       MOSUNNY   66  32  28 SE6       29.96F
SHELBYVILLE    SUNNY     70  37  30 CALM      29.99F
$$

TNZ017-018-042-046-047-242200-
NORTHEAST TENNESSEE

CITY           SKY/WX    TMP DP  RH WIND       PRES   REMARKS
TRI CITIES     PTSUNNY   64  21  19 VRB5      30.01F
ELIZABETHTON   CLEAR     63  25  23 SW3       30.01F
$$

TNZ012-013-036-069-073-074-242200-
CENTRAL EAST TENNESSEE

CITY           SKY/WX    TMP DP  RH WIND       PRES   REMARKS
KNOXVILLE      CLOUDY    65  28  24 VRB3      29.98F
OAK RIDGE      CLOUDY    67  27  22 VRB3      30.00F
GATLINBURG     CLEAR     64  23  20 VRB3      29.99S
$$

TNZ083-085-099-242200-
SOUTHEAST TENNESSEE

CITY           SKY/WX    TMP DP  RH WIND       PRES   REMARKS
CHATTANOOGA    PTSUNNY   70  33  25 CALM      30.00F
$$

SKY/WX REPORTED AS FAIR MEANS FEW OR NO CLOUDS BELOW
12 THOUSAND FEET.



USA.gov is the U.S. government's official web portal to all federal, state and local government web resources and services.